Home   Weather   Upernavik   Past weeks

Flag for Greenland Past Weather in Upernavik, Greenland — Yesterday and Last 2 Weeks

Now
6 °F

Frigid.


Feels Like: -20 °F
Forecast: -2 / 10 °F
Wind: 40 mph from East

Location: Edderfugle Oeer

Current Time: Jan 18, 2017 at 1:18:24 pm

Latest Report: Jan 18, 2017 at 12:00 pm


Visibility: N/A

Pressure: 29.35 "Hg

Humidity: 83%

Dew Point: 2 °F

Location of UpernavikLocation

Past Weather in Upernavik — Graph

°F

Upernavik Temperature Yesterday

Maximum temperature yesterday: -5 °F (at 10:00 pm)
Minimum temperature yesterday: -19 °F (at 5:00 am)
Average temperature yesterday: -14 °F

High & Low Weather Summary for the Past Weeks

 TemperatureHumidityPressure
High8 °F (Jan 3, 12:00 pm)92% (Jan 4, 7:00 am)30.22 "Hg (Jan 4, 7:00 am)
Low-19 °F (Jan 17, 5:00 am)68% (Jan 6, 7:00 am)28.76 "Hg (Jan 15, 12:00 pm)
Average-4 °F83%29.61 "Hg
* Reported Jan 3 11:00 am — Jan 18 11:00 am, Upernavik, Weather by CustomWeather, © 2017

Note: Actual official high and low records may vary slightly from our data, if they occured in-between our weather recording intervals... More about our weather records

Advertising

Upernavik Weather History for the Previous 24 Hours

Scroll right to see more
 ConditionsComfort  
Time TempWeatherWind HumidityBarometerVisibility
11:00 am
Wed, Jan 18
5 °FFrigid.30 mph85%29.41 "HgN/A
10:00 am4 °FFrigid.28 mph85%29.47 "HgN/A
9:00 am3 °FFrigid.24 mph85%29.53 "HgN/A
8:00 am2 °FFrigid.21 mph86%29.57 "HgN/A
7:00 am0 °FFrigid.21 mph85%29.60 "HgN/A
6:00 am-2 °FFrigid.13 mph84%29.63 "HgN/A
5:00 am-2 °FFrigid.21 mph80%29.66 "HgN/A
4:00 am-1 °FFrigid.21 mph84%29.68 "HgN/A
3:00 am-2 °FFrigid.31 mph78%29.67 "HgN/A
2:00 am-4 °FFrigid.28 mph81%29.69 "HgN/A
1:00 am-4 °FFrigid.32 mph79%29.67 "HgN/A
12:00 am-5 °FFrigid.32 mph81%29.69 "HgN/A
11:00 pm
Tue, Jan 17
-6 °FFrigid.32 mph79%29.70 "HgN/A
10:00 pm-5 °FFrigid.38 mph82%29.68 "HgN/A
9:00 pm-6 °FFrigid.18 mphN/A29.74 "HgN/A
8:00 pm-6 °FFrigid.N/A83%29.74 "HgN/A
7:00 pm-8 °FFrigid.N/A82%29.77 "HgN/A
6:00 pm-9 °FFrigid.N/A81%29.78 "HgN/A
5:00 pm-10 °FExtremely cold.N/A81%29.78 "HgN/A
4:00 pm-11 °FExtremely cold.N/A81%29.78 "HgN/A
3:00 pm-12 °FExtremely cold.N/A81%29.78 "HgN/A
2:00 pm-14 °FExtremely cold.N/A80%29.78 "HgN/A
1:00 pm-13 °FExtremely cold.N/A80%29.77 "HgN/A
Weather by CustomWeather, © 2017

See weather overviewHow to use our weather pages